When you browse on this site, cookies collect data to enhance your experience and personalize the content and advertising you see.
Visit our Privacy Policy to learn more. By continuing to use the site, you agree to this use of cookies and data.
  • In Romania
  • List of Countries
  • For 7 days
  • Water Temperature
  • Satellite Maps
  • Weather Map
  • Weather Widgets
  • user-avatar
    Login

    Hourly Weather Ogarevo

    Today, 25 April, Thursday

    Time Temperature Precipitation Wind Pressure Humidity
    00:00 +14°C° 0 mm 2 mps 747 mmHg 55%
    01:00 +14°C° 0 mm 2 mps 747 mmHg 56%
    02:00 +13°C° 0 mm 2 mps 747 mmHg 58%
    03:00 +13°C° 0 mm 2 mps 747 mmHg 59%
    04:00 +13°C° 0 mm 2 mps 747 mmHg 61%
    05:00 +12°C° 0 mm 2 mps 747 mmHg 63%
    06:00 +12°C° 0 mm 2 mps 747 mmHg 64%
    07:00 +14°C° 0 mm 2 mps 747 mmHg 59%
    08:00 +16°C° 0 mm 2 mps 747 mmHg 54%
    09:00 +18°C° 0 mm 2 mps 747 mmHg 49%
    10:00 +19°C° 0 mm 2 mps 747 mmHg 44%
    11:00 +21°C° 0 mm 2 mps 747 mmHg 40%
    12:00 +22°C° 0 mm 3 mps 747 mmHg 36%
    13:00 +22°C° 0 mm 3 mps 747 mmHg 34%
    14:00 +24°C° 0 mm 3 mps 747 mmHg 33%
    15:00 +24°C° 0 mm 3 mps 746 mmHg 32%
    16:00 +24°C° 0 mm 3 mps 746 mmHg 34%
    17:00 +24°C° 0 mm 2 mps 746 mmHg 36%
    18:00 +23°C° 0 mm 2 mps 745 mmHg 38%
    19:00 +21°C° 0 mm 2 mps 745 mmHg 42%
    20:00 +19°C° 0 mm 2 mps 745 mmHg 45%
    21:00 +18°C° 0 mm 2 mps 745 mmHg 49%
    22:00 +18°C° 0 mm 2 mps 745 mmHg 50%
    23:00 +17°C° 0 mm 2 mps 745 mmHg 50%

    Tomorrow, 26 April, Friday

    Time Temperature Precipitation Wind Pressure Humidity
    00:00 +17°C° 0 mm 2 mps 745 mmHg 51%
    01:00 +17°C° 0 mm 2 mps 745 mmHg 52%
    02:00 +16°C° 0 mm 2 mps 745 mmHg 53%
    03:00 +16°C° 0 mm 2 mps 745 mmHg 54%
    04:00 +16°C° 0 mm 2 mps 745 mmHg 56%
    05:00 +15°C° 0 mm 1 mps 745 mmHg 58%
    06:00 +15°C° 0 mm 1 mps 745 mmHg 60%
    07:00 +16°C° 0 mm 1 mps 745 mmHg 58%
    08:00 +18°C° 0 mm 1 mps 745 mmHg 56%
    09:00 +18°C° 0 mm 1 mps 745 mmHg 54%
    10:00 +19°C° 0 mm 1 mps 745 mmHg 51%
    11:00 +20°C° 0 mm 1 mps 745 mmHg 48%
    12:00 +21°C° 0 mm 1 mps 745 mmHg 45%
    13:00 +20°C° 0 mm 2 mps 745 mmHg 48%
    14:00 +19°C° 0 mm 2 mps 744 mmHg 50%
    15:00 +19°C° 0 mm 2 mps 744 mmHg 52%
    16:00 +19°C° 0 mm 2 mps 744 mmHg 52%
    17:00 +20°C° 0 mm 1 mps 744 mmHg 51%
    18:00 +20°C° 0 mm 1 mps 743 mmHg 51%
    19:00 +19°C° 0 mm 1 mps 743 mmHg 55%
    20:00 +16°C° 0 mm 1 mps 743 mmHg 60%
    21:00 +14°C° 0 mm 0 mps 743 mmHg 64%
    22:00 +15°C° 0 mm 1 mps 743 mmHg 66%
    23:00 +14°C° 0 mm 1 mps 743 mmHg 67%

    Day after tomorrow, 27 April, Saturday

    Time Temperature Precipitation Wind Pressure Humidity
    00:00 +14°C° 0 mm 1 mps 743 mmHg 69%
    01:00 +13°C° 0 mm 1 mps 742 mmHg 71%
    02:00 +13°C° 0 mm 1 mps 742 mmHg 72%
    03:00 +13°C° 0 mm 1 mps 742 mmHg 74%
    04:00 +12°C° 0 mm 1 mps 742 mmHg 76%
    05:00 +12°C° 0 mm 1 mps 741 mmHg 77%
    06:00 +12°C° 0 mm 1 mps 741 mmHg 79%
    07:00 +14°C° 0 mm 2 mps 741 mmHg 73%
    08:00 +15°C° 0 mm 2 mps 741 mmHg 67%
    09:00 +17°C° 0 mm 2 mps 741 mmHg 62%
    10:00 +18°C° 0 mm 3 mps 740 mmHg 54%
    11:00 +20°C° 0 mm 3 mps 740 mmHg 46%
    12:00 +21°C° 0 mm 4 mps 740 mmHg 38%
    13:00 +21°C° 0 mm 4 mps 739 mmHg 38%
    14:00 +21°C° 0 mm 4 mps 739 mmHg 37%
    15:00 +21°C° 0 mm 4 mps 739 mmHg 37%
    16:00 +21°C° 0 mm 4 mps 738 mmHg 40%
    17:00 +20°C° 0 mm 4 mps 738 mmHg 44%
    18:00 +20°C° 0 mm 3 mps 737 mmHg 47%
    19:00 +19°C° 0 mm 3 mps 737 mmHg 51%
    20:00 +17°C° 0 mm 3 mps 737 mmHg 56%
    21:00 +16°C° 0 mm 3 mps 737 mmHg 60%
    22:00 +14°C° 0 mm 3 mps 736 mmHg 61%
    23:00 +13°C° 0 mm 3 mps 736 mmHg 62%

    28 April, Sunday

    Time Temperature Precipitation Wind Pressure Humidity
    00:00 +13°C° 0 mm 3 mps 736 mmHg 63%
    01:00 +12°C° 0 mm 3 mps 736 mmHg 67%
    02:00 +12°C° 0 mm 3 mps 735 mmHg 71%
    03:00 +11°C° 0 mm 3 mps 735 mmHg 76%
    04:00 +11°C° 0 mm 3 mps 735 mmHg 78%
    05:00 +11°C° 0 mm 3 mps 734 mmHg 80%
    06:00 +11°C° 0 mm 3 mps 734 mmHg 82%
    07:00 +11°C° 0.2 mm 3 mps 734 mmHg 81%
    08:00 +12°C° 0.2 mm 3 mps 734 mmHg 81%
    09:00 +13°C° 0.2 mm 3 mps 734 mmHg 81%
    10:00 +12°C° 0.6 mm 4 mps 734 mmHg 82%
    11:00 +10°C° 0.6 mm 6 mps 735 mmHg 84%
    12:00 +9°C° 0.6 mm 7 mps 735 mmHg 86%
    13:00 +10°C° 0 mm 7 mps 736 mmHg 81%
    14:00 +10°C° 0 mm 7 mps 736 mmHg 75%
    15:00 +10°C° 0 mm 7 mps 737 mmHg 70%
    16:00 +9°C° 0 mm 7 mps 738 mmHg 68%
    17:00 +9°C° 0 mm 7 mps 738 mmHg 65%
    18:00 +9°C° 0 mm 6 mps 739 mmHg 63%
    19:00 +8°C° 0 mm 6 mps 739 mmHg 62%
    20:00 +7°C° 0 mm 5 mps 740 mmHg 62%
    21:00 +6°C° 0 mm 5 mps 741 mmHg 61%
    22:00 +5°C° 0 mm 4 mps 741 mmHg 63%
    23:00 +4°C° 0 mm 4 mps 742 mmHg 66%

    29 April, Monday

    Time Temperature Precipitation Wind Pressure Humidity
    00:00 +3°C° 0 mm 4 mps 742 mmHg 68%
    01:00 +3°C° 0 mm 4 mps 743 mmHg 68%
    02:00 +1°C° 0 mm 4 mps 743 mmHg 67%
    03:00 0°C° 0 mm 4 mps 743 mmHg 67%
    04:00 0°C° 0 mm 4 mps 744 mmHg 65%
    05:00 0°C° 0 mm 4 mps 744 mmHg 64%
    06:00 -1°C° 0 mm 4 mps 744 mmHg 63%
    07:00 0°C° 0 mm 5 mps 745 mmHg 56%
    08:00 +1°C° 0 mm 5 mps 745 mmHg 48%
    09:00 +2°C° 0 mm 6 mps 745 mmHg 41%
    10:00 +3°C° 0 mm 6 mps 745 mmHg 40%
    11:00 +4°C° 0 mm 6 mps 745 mmHg 38%
    12:00 +6°C° 0 mm 5 mps 745 mmHg 37%
    13:00 +7°C° 0 mm 5 mps 745 mmHg 37%
    14:00 +7°C° 0 mm 5 mps 745 mmHg 37%
    15:00 +8°C° 0 mm 5 mps 745 mmHg 37%
    16:00 +7°C° 0 mm 4 mps 744 mmHg 38%
    17:00 +7°C° 0 mm 4 mps 744 mmHg 39%
    18:00 +7°C° 0 mm 4 mps 744 mmHg 40%
    19:00 +7°C° 0 mm 3 mps 745 mmHg 44%
    20:00 +5°C° 0 mm 3 mps 745 mmHg 49%
    21:00 +5°C° 0 mm 2 mps 745 mmHg 53%
    22:00 +4°C° 0 mm 2 mps 745 mmHg 56%
    23:00 +2°C° 0 mm 3 mps 745 mmHg 58%

    30 April, Tuesday

    Time Temperature Precipitation Wind Pressure Humidity
    00:00 +2°C° 0 mm 3 mps 746 mmHg 60%
    01:00 +2°C° 0 mm 2 mps 746 mmHg 62%
    02:00 +2°C° 0 mm 2 mps 746 mmHg 64%
    03:00 +1°C° 0 mm 2 mps 746 mmHg 65%
    04:00 +1°C° 0 mm 2 mps 746 mmHg 66%
    05:00 +1°C° 0 mm 2 mps 746 mmHg 66%
    06:00 +1°C° 0 mm 2 mps 746 mmHg 66%
    07:00 +3°C° 0 mm 2 mps 746 mmHg 60%
    08:00 +3°C° 0 mm 3 mps 746 mmHg 54%
    09:00 +5°C° 0 mm 3 mps 746 mmHg 47%
    10:00 +7°C° 0 mm 3 mps 746 mmHg 44%
    11:00 +8°C° 0 mm 3 mps 746 mmHg 41%
    12:00 +8°C° 0 mm 3 mps 746 mmHg 38%
    13:00 +9°C° 0 mm 3 mps 745 mmHg 38%
    14:00 +9°C° 0 mm 3 mps 745 mmHg 37%
    15:00 +9°C° 0 mm 3 mps 745 mmHg 37%
    16:00 +9°C° 0 mm 2 mps 744 mmHg 38%
    17:00 +9°C° 0 mm 2 mps 744 mmHg 39%
    18:00 +9°C° 0 mm 2 mps 744 mmHg 40%
    19:00 +8°C° 0 mm 2 mps 744 mmHg 44%
    20:00 +7°C° 0 mm 2 mps 744 mmHg 48%
    21:00 +5°C° 0 mm 2 mps 744 mmHg 51%
    22:00 +5°C° 0 mm 2 mps 744 mmHg 53%
    23:00 +5°C° 0 mm 1 mps 744 mmHg 54%
    Show more